KU9TRY Weather Reports


time (UTC)temp
F
wind
direction
speed
knots
gust
knots
rain 1hr
in
rain 24hr
in
rain mn
in
humidity
%
barometer
mb
20260906120551 0 0.0 0.0 0.00 0.00 0.00 1014.1
20260906120049 0 0.0 0.0 0.00 0.00 0.00 1013.9
20260906115548 0 0.0 0.0 0.00 0.00 0.00 1013.8
20260906115044 0 0.0 0.0 0.00 0.00 0.00 1013.9
20260906114544 0 0.0 0.0 0.00 0.00 0.00 1013.8
20260906114039 0 0.0 0.0 0.00 0.00 0.00 1013.6
20260906113538 0 0.0 0.0 0.00 0.00 0.00 1013.6
20260906113033 0 0.0 0.0 0.00 0.00 0.00 1013.5
20260906112528 0 0.0 0.0 0.00 0.00 0.00 1013.6
20260906112025 0 0.0 0.0 0.00 0.00 0.00 1013.5
20260906111524 0 0.0 0.0 0.00 0.00 0.00 1013.2
20260906111020 0 0.0 0.0 0.00 0.00 0.00 1013.3
20260906110520 0 0.0 0.0 0.00 0.00 0.00 1013.4
20260906110019 0 0.0 0.0 0.00 0.00 0.00 1013.3
20260906105514 69 287 0.0 0.0 0.00 0.03 0.03 99 1013.4
20260906105010 69 287 0.0 0.0 0.00 0.03 0.03 99 1013.4
20260906104508 69 287 0.0 0.0 0.00 0.03 0.03 99 1013.4
20260906104003 69 287 0.0 0.0 0.00 0.03 0.03 99 1013.4
20260906103501 69 287 0.0 0.0 0.00 0.03 0.03 99 1013.2
20260906102956 69 287 0.0 0.0 0.00 0.03 0.03 99 1013.3
20260906102451 0 0.0 0.0 0.00 0.00 0.00 1013.3
20260906101951 0 0.0 0.0 0.00 0.00 0.00 1013.2
20260906101446 69 287 0.0 0.0 0.00 0.03 0.03 99 1013.2
20260906100941 69 287 0.0 0.0 0.00 0.03 0.03 99 1013.2
20260906100436 0 0.0 0.0 0.00 0.00 0.00 1013.1
20260906095935 69 287 0.0 0.0 0.00 0.03 0.03 99 1013.2
20260906095431 69 287 0.0 0.0 0.00 0.03 0.03 99 1013.1
20260906094926 69 287 0.0 0.0 0.00 0.03 0.03 99 1013.1
20260906094420 69 287 0.0 0.0 0.00 0.03 0.03 99 1013.4
20260906093916 70 287 0.0 0.0 0.00 0.03 0.03 99 1013.1
20260906093413 70 287 0.0 0.0 0.00 0.03 0.03 99 1013.2
20260906092912 69 287 0.0 0.0 0.00 0.03 0.03 99 1013.3
20260906092412 69 287 0.0 0.0 0.00 0.03 0.03 99 1013.1
20260906091908 69 287 0.0 0.0 0.00 0.03 0.03 99 1013.0
20260906091404 69 287 0.0 0.0 0.00 0.03 0.03 99 1013.0
20260906090900 69 287 0.0 0.0 0.00 0.03 0.03 99 1013.0
20260906090359 69 287 0.0 0.0 0.00 0.03 0.03 99 1012.8
20260906085854 69 287 0.0 0.0 0.00 0.03 0.03 98 1012.9
20260906085354 69 286 0.0 0.0 0.00 0.03 0.03 98 1012.9
20260906084848 69 286 0.0 0.0 0.00 0.03 0.03 98 1013.1
20260906084348 69 285 0.0 0.0 0.00 0.03 0.03 98 1013.2
20260906083842 70 291 0.0 0.0 0.00 0.03 0.03 98 1013.0
20260906083338 70 291 0.0 0.0 0.00 0.03 0.03 98 1012.8
20260906082838 70 292 0.0 0.0 0.00 0.03 0.03 98 1012.8
20260906082333 70 295 0.0 0.0 0.00 0.03 0.03 98 1012.9
20260906081829 70 296 0.0 0.0 0.00 0.03 0.03 98 1012.9
20260906081325 69 295 0.0 0.0 0.00 0.03 0.03 98 1012.9
20260906080820 70 308 0.0 0.0 0.00 0.03 0.03 98 1012.9
20260906080317 69 318 0.0 0.0 0.00 0.03 0.03 98 1012.9
20260906075816 70 292 0.0 0.0 0.00 0.03 0.03 98 1012.9
20260906075315 70 282 0.9 0.9 0.00 0.03 0.03 98 1012.9
20260906074811 70 309 0.0 0.0 0.00 0.03 0.03 98 1013.0
20260906074310 70 310 0.0 0.0 0.00 0.03 0.03 98 1013.1
20260906073810 70 310 0.0 0.0 0.00 0.03 0.03 98 1013.0
20260906073305 70 304 0.0 0.0 0.00 0.03 0.03 98 1012.8
20260906072801 70 304 0.0 0.0 0.00 0.03 0.03 98 1013.1
20260906072256 70 304 0.0 0.0 0.00 0.03 0.03 98 1012.9
20260906071752 70 304 0.0 0.0 0.00 0.03 0.03 98 1013.2
20260906071252 70 304 0.0 0.0 0.00 0.03 0.03 98 1013.1
20260906070749 70 304 0.0 0.0 0.00 0.03 0.03 98 1013.2
20260906070244 70 304 0.0 0.0 0.00 0.03 0.03 98 1013.4
20260906065744 70 304 0.0 0.0 0.00 0.03 0.03 98 1013.4
20260906065239 70 297 0.0 0.0 0.00 0.03 0.03 98 1013.5
20260906064735 70 280 0.9 0.9 0.00 0.03 0.03 98 1013.6
20260906064230 70 219 1.7 2.6 0.00 0.03 0.03 98 1013.6
20260906063725 70 286 0.9 0.9 0.00 0.03 0.03 98 1013.4
20260906063221 70 294 0.9 0.9 0.00 0.03 0.03 98 1013.5
20260906062716 70 277 1.7 1.7 0.00 0.03 0.03 98 1013.2
20260906062215 70 296 0.0 0.0 0.00 0.03 0.03 98 1013.2
20260906061711 70 288 0.9 0.0 0.00 0.03 0.03 97 1013.1
20260906061207 70 306 0.0 0.0 0.00 0.03 0.03 97 1013.1
20260906060703 70 306 0.0 0.0 0.00 0.03 0.03 97 1013.1
20260906060200 70 289 0.0 0.0 0.00 0.03 0.03 97 1013.2
20260906055655 70 290 0.0 0.0 0.00 0.03 0.03 97 1012.8
20260906055150 70 309 0.0 0.0 0.00 0.03 0.03 97 1013.2
20260906054646 70 293 0.0 0.0 0.00 0.03 0.03 97 1013.1
20260906054140 70 286 0.0 0.0 0.00 0.03 0.03 97 1013.1
20260906053637 69 302 0.9 0.9 0.00 0.03 0.03 97 1013.2
20260906053137 69 282 0.9 1.7 0.05 0.03 0.03 96 1013.1
20260906052633 69 308 0.9 0.9 0.05 0.03 0.03 96 1012.9
20260906052129 69 286 0.9 0.9 0.00 0.02 0.02 95 1013.0
20260906051626 69 236 0.9 1.7 0.00 0.02 0.02 95 1013.1
20260906051125 70 183 3.5 3.5 0.12 0.02 0.02 95 1013.7
20260906050621 70 287 0.9 0.9 0.61 0.02 0.02 95 1013.9
20260906050116 71 200 2.6 3.5 0.59 0.01 0.01 94 1014.1
20260906045614 72 271 0.9 0.9 0.52 0.49 0.49 94 1014.4
20260906045110 72 275 1.7 1.7 0.66 0.46 0.46 93 1014.7
20260906044606 73 277 2.6 2.6 1.28 0.40 0.40 92 1015.0
20260906044101 75 334 1.7 3.5 1.84 0.36 0.36 91 1015.6
20260906043557 77 294 3.5 5.2 1.37 0.23 0.23 92 1015.0
20260906043052 79 316 5.2 7.0 0.24 0.04 0.04 86 1015.0
20260906042551 79 286 0.9 0.9 0.00 0.00 0.00 84 1014.6
20260906042046 78 280 0.9 0.9 0.00 0.00 0.00 85 1014.4
20260906041542 78 288 0.9 0.9 0.00 0.00 0.00 86 1014.3
20260906041037 77 290 0.0 0.0 0.00 0.00 0.00 89 1014.2
20260906040532 77 325 0.0 0.0 0.00 0.00 0.00 88 1013.3
20260906040028 77 285 0.0 0.0 0.00 0.00 0.00 88 1013.1
20260906035522 77 284 0.0 0.0 0.00 0.00 0.00 88 1013.5
20260906035019 77 284 0.0 0.0 0.00 0.00 0.00 88 1013.7
20260906034518 77 285 0.0 0.0 0.00 0.00 0.00 87 1013.6
20260906034013 77 284 0.0 0.0 0.00 0.00 0.00 87 1013.9
20260906033508 77 284 0.0 0.0 0.00 0.00 0.00 88 1014.1
20260906033004 77 284 0.0 0.0 0.00 0.00 0.00 88 1013.8
20260906032501 77 284 0.0 0.0 0.00 0.00 0.00 88 1013.6
20260906032000 77 284 0.0 0.0 0.00 0.00 0.00 88 1013.2
20260906031456 77 284 0.0 0.0 0.00 0.00 0.00 88 1013.0
20260906030951 77 285 0.0 0.0 0.00 0.00 0.00 87 1013.0
20260906030446 77 284 0.0 0.0 0.00 0.00 0.00 86 1012.8
20260906025940 77 284 0.0 0.0 0.00 0.00 0.00 87 1012.9
20260906025440 77 284 0.0 0.0 0.00 0.00 0.00 87 1012.9
20260906024938 77 284 0.0 0.0 0.00 0.00 0.00 86 1013.0
20260906024439 77 284 0.0 0.0 0.00 0.00 0.00 86 1013.0
20260906023939 77 285 0.0 0.0 0.00 0.00 0.00 86 1012.9
20260906023436 78 284 0.0 0.0 0.00 0.00 0.00 86 1012.8
20260906022936 78 284 0.0 0.0 0.00 0.00 0.00 85 1012.5
20260906022431 78 284 0.0 0.0 0.00 0.00 0.00 85 1012.5
20260906021926 78 284 0.0 0.0 0.00 0.00 0.00 85 1012.5
20260906021427 78 284 0.0 0.0 0.00 0.00 0.00 85 1012.4
20260906020926 78 284 0.0 0.0 0.00 0.00 0.00 85 1012.3
20260906020421 78 284 0.0 0.0 0.00 0.00 0.00 85 1012.1
20260906015921 78 284 0.0 0.0 0.00 0.00 0.00 85 1012.1
20260906015421 78 284 0.0 0.0 0.00 0.00 0.00 84 1012.2
20260906014920 79 284 0.0 0.0 0.00 0.00 0.00 84 1012.0
20260906014420 79 284 0.0 0.0 0.00 0.00 0.00 83 1012.2
20260906013916 79 284 0.0 0.0 0.00 0.00 0.00 83 1012.3
20260906013412 80 284 0.0 0.0 0.00 0.00 0.00 82 1012.3
20260906012907 80 284 0.0 0.0 0.00 0.00 0.00 81 1012.3
20260906012402 80 284 0.0 0.0 0.00 0.00 0.00 80 1012.2
20260906011901 80 285 0.0 0.0 0.00 0.00 0.00 80 1012.3
20260906011356 80 285 0.0 0.0 0.00 0.00 0.00 79 1012.2
20260906010852 80 285 0.0 0.0 0.00 0.00 0.00 79 1012.1
20260906010348 80 285 0.0 0.0 0.00 0.00 0.00 80 1012.0
20260906005844 81 285 0.0 0.0 0.00 0.00 0.00 80 1012.1
20260906005343 81 285 0.0 0.0 0.00 0.00 0.00 78 1012.1
20260906004842 81 285 0.0 0.0 0.00 0.00 0.00 78 1012.1
20260906004342 81 285 0.0 0.0 0.00 0.00 0.00 77 1012.0
20260906003837 81 285 0.0 0.0 0.00 0.00 0.00 78 1012.3
20260906003332 82 284 0.0 0.0 0.00 0.00 0.00 75 1012.1
20260906002827 82 284 0.0 0.0 0.00 0.00 0.00 75 1012.3
20260906002327 82 294 0.0 0.0 0.00 0.00 0.00 75 1012.2
20260906001823 82 294 0.0 0.0 0.00 0.00 0.00 75 1012.3
20260906001318 82 295 0.0 0.0 0.00 0.00 0.00 74 1012.4
20260906000813 82 295 0.0 0.0 0.00 0.00 0.00 74 1012.3
20260906000307 83 295 0.0 0.0 0.00 0.00 0.00 74 1012.2
20260905235802 83 295 0.0 0.0 0.00 0.00 0.00 72 1011.9
20260905235306 83 295 0.0 0.0 0.00 0.00 0.00 73 1012.1
20260905234758 84 283 0.0 0.0 0.00 0.00 0.00 71 1012.1
20260905234253 84 283 0.0 0.0 0.00 0.00 0.00 71 1011.9
20260905233748 85 284 0.9 0.9 0.00 0.00 0.00 69 1011.8
20260905233248 85 290 0.9 0.9 0.00 0.00 0.00 68 1011.6
20260905232747 85 279 0.0 0.0 0.00 0.00 0.00 68 1011.6
20260905232243 85 285 0.0 0.0 0.00 0.00 0.00 68 1011.7
20260905231739 86 284 0.0 0.0 0.00 0.00 0.00 67 1011.4
20260905231234 86 287 0.9 0.9 0.00 0.00 0.00 66 1011.5
20260905230730 86 290 0.0 0.0 0.00 0.00 0.00 65 1011.5
20260905230228 86 275 1.7 1.7 0.00 0.00 0.00 65 1011.7
20260905225728 86 276 1.7 1.7 0.00 0.00 0.00 63 1011.6
20260905225223 86 284 0.9 0.9 0.00 0.00 0.00 64 1011.6
20260905224722 86 285 0.9 0.9 0.00 0.00 0.00 64 1011.9
20260905224217 87 270 1.7 1.7 0.00 0.00 0.00 64 1011.9
20260905223714 87 287 0.0 0.0 0.00 0.00 0.00 63 1012.0
20260905223210 87 270 0.0 0.0 0.00 0.00 0.00 64 1012.0
20260905222706 87 278 0.9 0.9 0.00 0.00 0.00 63 1012.0
20260905222205 88 279 0.9 0.9 0.00 0.00 0.00 62 1012.1
20260905221700 88 281 0.0 0.0 0.00 0.00 0.00 59 1012.2
20260905221158 88 287 0.9 0.9 0.00 0.00 0.00 60 1012.2
20260905220653 89 322 0.0 0.0 0.00 0.00 0.00 58 1012.2
20260905220149 87 292 0.9 0.9 0.00 0.00 0.00 59 1012.1
20260905215648 87 281 0.0 0.0 0.00 0.00 0.00 61 1011.9
20260905215144 87 282 0.0 0.0 0.00 0.00 0.00 61 1011.8
20260905214641 87 282 0.0 0.0 0.00 0.00 0.00 60 1012.1
20260905214140 88 281 0.9 0.9 0.00 0.00 0.00 60 1012.1
20260905213636 88 282 0.0 0.0 0.00 0.00 0.00 61 1012.1
20260905213131 89 282 0.0 0.0 0.00 0.00 0.00 61 1012.3
20260905212627 89 282 0.0 0.0 0.00 0.00 0.00 60 1012.1
20260905212127 89 282 0.0 0.0 0.00 0.00 0.00 55 1012.2
20260905211627 88 315 0.0 0.0 0.00 0.00 0.00 59 1012.3
20260905211122 87 356 0.0 0.0 0.00 0.00 0.00 63 1012.2
20260905210619 87 292 0.0 0.0 0.00 0.00 0.00 64 1012.3
20260905210113 87 300 0.0 0.0 0.00 0.00 0.00 62 1012.2
20260905205613 86 296 0.0 0.0 0.00 0.00 0.00 63 1012.2
20260905205112 87 286 0.9 0.9 0.00 0.00 0.00 63 1012.4
20260905204612 86 306 0.0 0.0 0.00 0.00 0.00 60 1012.5
20260905204107 86 289 0.0 0.0 0.00 0.00 0.00 60 1012.3
20260905203602 86 278 0.9 0.9 0.00 0.00 0.00 61 1012.3
20260905203057 86 279 0.0 0.0 0.00 0.00 0.00 60 1012.4
20260905202553 86 279 0.9 0.9 0.00 0.00 0.00 59 1012.6
20260905202048 86 279 0.9 0.9 0.00 0.00 0.00 61 1012.7
20260905201543 87 283 0.0 0.0 0.00 0.00 0.00 57 1012.7
20260905201043 87 282 0.0 0.0 0.00 0.00 0.00 59 1012.6
20260905200538 88 289 0.0 0.0 0.00 0.00 0.00 55 1012.7
20260905200038 89 293 0.0 0.0 0.00 0.00 0.00 53 1012.9
20260905195532 89 293 0.0 0.0 0.00 0.00 0.00 51 1012.6
20260905195028 89 293 0.0 0.0 0.00 0.00 0.00 48 1012.9
20260905194527 89 287 0.9 0.9 0.00 0.00 0.00 48 1012.8
20260905194027 88 323 0.9 0.9 0.00 0.00 0.00 48 1013.1
20260905193521 88 310 0.9 0.9 0.00 0.00 0.00 49 1013.0
20260905193017 87 183 4.3 6.1 0.00 0.00 0.00 51 1013.2
20260905192512 86 226 0.9 1.7 0.00 0.00 0.00 53 1013.2
20260905192008 85 287 0.9 0.9 0.00 0.00 0.00 57 1013.6
20260905191507 84 304 0.0 0.0 0.00 0.00 0.00 60 1013.7
20260905191007 84 317 5.2 7.8 0.00 0.00 0.00 59 1014.1
20260905190504 84 296 3.5 5.2 0.00 0.00 0.00 58 1013.9
20260905190003 85 9 3.5 5.2 0.00 0.00 0.00 55 1014.2
20260905185458 87 10 10.4 13.0 0.00 0.00 0.00 56 1014.7
20260905184957 91 330 6.1 7.8 0.00 0.00 0.00 55 1014.1
20260905184452 97 21 6.1 9.6 0.00 0.00 0.00 47 1014.1
20260905183951 98 347 1.7 2.6 0.00 0.00 0.00 44 1013.5
20260905183450 99 351 4.3 6.1 0.00 0.00 0.00 43 1013.4
20260905182945 98 347 0.0 0.0 0.00 0.00 0.00 46 1013.0
20260905182445 98 339 3.5 2.6 0.00 0.00 0.00 44 1013.1
20260905181940 98 317 0.0 0.0 0.00 0.00 0.00 44 1013.1
20260905181435 97 285 1.7 1.7 0.00 0.00 0.00 44 1013.3
20260905180934 98 353 1.7 1.7 0.00 0.00 0.00 43 1013.5
20260905180429 98 339 3.5 3.5 0.00 0.00 0.00 44 1013.4
20260905175924 97 315 0.9 0.9 0.00 0.00 0.00 46 1013.6
20260905175423 98 351 2.6 2.6 0.00 0.00 0.00 45 1013.6
20260905174919 97 300 0.9 1.7 0.00 0.00 0.00 44 1013.6
20260905174414 97 0 0.0 0.0 0.00 0.00 0.00 49 1013.7
20260905173910 96 216 2.6 2.6 0.00 0.00 0.00 49 1013.6
20260905173407 97 170 3.5 3.5 0.00 0.00 0.00 49 1014.0
20260905172907 97 340 1.7 2.6 0.00 0.00 0.00 48 1013.9
20260905172404 96 317 0.9 0.9 0.00 0.00 0.00 50 1014.0
20260905171900 96 313 0.9 0.9 0.00 0.00 0.00 50 1013.8
20260905171357 95 331 0.9 0.9 0.00 0.00 0.00 52 1014.1
20260905170853 95 347 3.5 3.5 0.00 0.00 0.00 51 1014.2
20260905170349 95 103 1.7 1.7 0.00 0.00 0.00 52 1014.1
20260905165848 94 237 0.9 1.7 0.00 0.00 0.00 54 1014.3
20260905165343 94 343 0.9 1.7 0.00 0.00 0.00 55 1014.3
20260905164838 94 208 2.6 2.6 0.00 0.00 0.00 53 1014.5
20260905164333 93 292 1.7 1.7 0.00 0.00 0.00 55 1014.6
20260905163829 92 179 2.6 2.6 0.00 0.00 0.00 57 1014.5
20260905163325 93 177 3.5 3.5 0.00 0.00 0.00 57 1014.7
20260905162821 93 263 3.5 3.5 0.00 0.00 0.00 56 1014.8
20260905162320 92 313 0.0 0.0 0.00 0.00 0.00 56 1015.0
20260905161815 92 317 0.0 0.0 0.00 0.00 0.00 57 1014.8
20260905161314 92 348 3.5 3.5 0.00 0.00 0.00 58 1014.9
20260905160812 91 321 0.9 1.7 0.00 0.00 0.00 60 1014.8
20260905160307 90 320 0.9 0.9 0.00 0.00 0.00 60 1015.0
20260905155802 89 340 1.7 2.6 0.00 0.00 0.00 62 1015.0
20260905155300 89 335 1.7 1.7 0.00 0.00 0.00 63 1015.2
20260905154755 89 0 0.9 0.9 0.00 0.00 0.00 67 1015.1
20260905154251 89 344 1.7 1.7 0.00 0.00 0.00 69 1015.3
20260905153746 87 307 0.9 0.9 0.00 0.00 0.00 71 1015.1
20260905153242 86 306 0.0 0.0 0.00 0.00 0.00 73 1015.2
20260905152737 86 325 0.9 0.9 0.00 0.00 0.00 74 1015.1
20260905152237 86 321 0.0 0.0 0.00 0.00 0.00 74 1015.2
20260905151736 86 310 0.0 0.0 0.00 0.00 0.00 74 1015.2
20260905151233 86 285 0.9 0.9 0.00 0.00 0.00 74 1015.1
20260905150732 86 311 0.0 0.0 0.00 0.00 0.00 74 1015.3
20260905150231 86 315 0.9 0.9 0.00 0.00 0.00 74 1015.3
20260905145729 85 307 0.9 0.9 0.00 0.00 0.00 75 1015.4
20260905145224 85 313 0.0 0.0 0.00 0.00 0.00 76 1015.4
20260905144723 85 321 1.7 1.7 0.00 0.00 0.00 77 1015.5
20260905144218 85 341 2.6 2.6 0.00 0.00 0.00 76 1015.5
20260905143717 84 310 0.0 0.0 0.00 0.00 0.00 77 1015.5
20260905143217 84 321 0.9 0.9 0.00 0.00 0.00 78 1015.5
20260905142715 83 328 0.9 0.9 0.00 0.00 0.00 79 1015.6
20260905142210 82 317 0.0 0.0 0.00 0.00 0.00 81 1015.4
20260905141706 82 325 0.9 0.9 0.00 0.00 0.00 83 1015.7
20260905141202 81 326 1.7 0.9 0.00 0.00 0.00 83 1015.4
20260905140657 81 319 0.0 0.0 0.00 0.00 0.00 84 1015.4
20260905140151 81 325 0.0 0.0 0.00 0.00 0.00 84 1015.5
20260905135646 80 321 0.0 0.0 0.00 0.00 0.00 85 1015.6
20260905135142 80 321 0.0 0.0 0.00 0.00 0.00 86 1015.5
20260905134641 79 323 0.0 0.0 0.00 0.00 0.00 87 1015.6
20260905134140 78 309 0.0 0.0 0.00 0.00 0.00 89 1015.5
20260905133636 78 299 0.0 0.0 0.00 0.00 0.00 89 1015.7
20260905133136 77 321 0.0 0.0 0.00 0.00 0.00 90 1015.6
20260905132635 77 293 0.0 0.0 0.00 0.00 0.00 90 1015.8
20260905132130 76 293 0.0 0.0 0.00 0.00 0.00 91 1015.8
20260905131625 76 293 0.0 0.0 0.00 0.00 0.00 91 1015.8
20260905131121 75 293 0.0 0.0 0.00 0.00 0.00 93 1015.9
20260905130621 75 293 0.0 0.0 0.00 0.00 0.00 92 1015.9
20260905130115 75 291 0.0 0.0 0.00 0.00 0.00 93 1015.9
20260905125615 75 291 0.0 0.0 0.00 0.00 0.00 94 1015.7
20260905125110 74 290 0.0 0.0 0.00 0.00 0.00 95 1015.9
20260905124607 74 290 0.0 0.0 0.00 0.00 0.00 95 1016.1
20260905124103 74 290 0.0 0.0 0.00 0.00 0.00 95 1015.9
20260905123558 73 290 0.0 0.0 0.00 0.00 0.00 95 1016.0
20260905123055 73 290 0.0 0.0 0.00 0.00 0.00 96 1016.1
20260905122555 73 290 0.0 0.0 0.00 0.00 0.00 96 1015.9
20260905122055 73 290 0.0 0.0 0.00 0.00 0.00 97 1015.7
20260905121549 73 290 0.0 0.0 0.00 0.00 0.00 97 1015.7
20260905121045 73 290 0.0 0.0 0.00 0.00 0.00 98 1015.7